Time,TemperatureF,DewpointF,PressureIn,WindDirection,WindDirectionDegrees,WindSpeedMPH,WindSpeedGustMPH,Humidity,HourlyPrecipIn,Conditions,Clouds,dailyrainin,SoftwareType,DateUTC
2013-01-31 00:00:00,70.2,67.0,29.98,SSW,202,4.0,9.4,87,0.00,,,0.00,,2013-01-31 05:00:00,
2013-01-31 00:03:00,70.2,67.0,29.98,SSW,202,4.3,9.4,87,0.00,,,0.00,,2013-01-31 05:03:00,
2013-01-31 00:08:00,70.2,67.0,29.98,SSW,202,2.9,6.3,88,0.00,,,0.00,,2013-01-31 05:08:00,
2013-01-31 00:13:00,70.0,67.0,29.98,SW,225,4.7,7.2,88,0.00,,,0.00,,2013-01-31 05:13:00,
2013-01-31 00:18:00,70.1,67.0,29.98,South,180,4.9,8.7,88,0.00,,,0.00,,2013-01-31 05:18:00,
2013-01-31 00:23:00,69.8,67.0,29.98,SSW,202,2.5,8.7,88,0.00,,,0.00,,2013-01-31 05:23:00,
2013-01-31 00:28:00,69.7,67.0,29.98,SSW,202,6.3,6.7,88,0.00,,,0.00,,2013-01-31 05:28:00,
2013-01-31 00:33:00,69.6,67.0,29.98,SSW,202,2.9,6.9,88,0.00,,,0.00,,2013-01-31 05:33:00,
2013-01-31 00:38:00,69.6,67.0,29.98,SSW,202,3.4,6.3,89,0.00,,,0.00,,2013-01-31 05:38:00,
2013-01-31 00:43:00,69.6,67.0,29.98,SSW,202,4.7,6.3,89,0.00,,,0.00,,2013-01-31 05:43:00,
2013-01-31 00:48:00,69.6,67.0,29.98,SSW,202,2.7,5.4,89,0.00,,,0.00,,2013-01-31 05:48:00,
2013-01-31 00:53:00,69.4,67.0,29.98,SSW,202,2.9,5.4,89,0.00,,,0.00,,2013-01-31 05:53:00,
2013-01-31 00:58:00,69.3,67.0,29.98,SSW,202,3.4,4.5,89,0.00,,,0.00,,2013-01-31 05:58:00,
2013-01-31 01:03:00,69.2,67.0,29.98,SSW,202,2.7,4.5,90,0.00,,,0.00,,2013-01-31 06:03:00,
2013-01-31 01:08:00,69.2,67.0,29.98,SSW,202,3.6,6.5,90,0.00,,,0.00,,2013-01-31 06:08:00,
2013-01-31 01:13:00,69.3,67.0,29.98,South,180,3.4,6.5,90,0.00,,,0.00,,2013-01-31 06:13:00,
2013-01-31 01:18:00,69.3,67.0,29.98,South,180,2.7,6.5,89,0.00,,,0.00,,2013-01-31 06:18:00,
2013-01-31 01:23:00,69.2,67.0,29.99,SSW,202,3.1,6.5,90,0.00,,,0.00,,2013-01-31 06:23:00,
2013-01-31 01:28:00,69.2,67.0,29.99,SSW,202,1.3,4.0,89,0.00,,,0.00,,2013-01-31 06:28:00,
2013-01-31 01:33:00,69.1,67.0,29.98,SSW,202,3.1,4.7,90,0.00,,,0.00,,2013-01-31 06:33:00,
2013-01-31 01:38:00,69.1,67.0,29.98,SSW,202,3.1,4.9,91,0.00,,,0.00,,2013-01-31 06:38:00,
2013-01-31 01:43:00,69.1,67.0,29.98,SSW,202,1.3,4.9,90,0.00,,,0.00,,2013-01-31 06:43:00,
2013-01-31 01:48:00,69.0,67.0,29.98,SSW,202,0.9,3.1,90,0.00,,,0.00,,2013-01-31 06:48:00,
2013-01-31 01:53:00,69.1,67.0,29.98,SSE,157,2.2,2.2,90,0.00,,,0.00,,2013-01-31 06:53:00,
2013-01-31 01:58:00,69.0,67.0,29.97,South,180,3.8,5.1,90,0.00,,,0.00,,2013-01-31 06:58:00,
2013-01-31 02:03:00,69.0,67.0,29.97,SSW,202,3.1,3.1,91,0.00,,,0.00,,2013-01-31 07:03:00,
2013-01-31 02:08:00,69.0,67.0,29.97,South,180,4.0,6.7,91,0.00,,,0.00,,2013-01-31 07:08:00,
2013-01-31 02:13:00,69.0,67.0,29.97,SSW,202,3.8,4.0,91,0.00,,,0.00,,2013-01-31 07:13:00,
2013-01-31 02:18:00,69.0,67.0,29.97,South,180,4.9,7.2,91,0.00,,,0.00,,2013-01-31 07:18:00,
2013-01-31 02:23:00,68.9,67.0,29.96,South,180,7.6,7.6,91,0.00,,,0.00,,2013-01-31 07:23:00,
2013-01-31 02:28:00,68.9,67.0,29.96,SSW,202,5.1,8.3,91,0.00,,,0.00,,2013-01-31 07:28:00,
2013-01-31 02:33:00,68.9,68.0,29.95,South,180,7.6,7.8,92,0.00,,,0.00,,2013-01-31 07:33:00,
2013-01-31 02:38:00,68.9,68.0,29.95,South,180,9.6,10.1,92,0.00,,,0.00,,2013-01-31 07:38:00,
2013-01-31 02:43:00,68.8,67.0,29.95,South,180,10.5,11.0,92,0.00,,,0.00,,2013-01-31 07:43:00,
2013-01-31 02:48:00,68.8,67.0,29.95,South,180,3.8,13.6,92,0.00,,,0.00,,2013-01-31 07:48:00,
2013-01-31 02:53:00,68.7,67.0,29.95,SSW,202,4.5,4.7,92,0.00,,,0.00,,2013-01-31 07:53:00,
2013-01-31 02:58:00,68.7,67.0,29.96,SSW,202,4.5,6.0,93,0.00,,,0.00,,2013-01-31 07:58:00,
2013-01-31 03:03:00,68.7,68.0,29.96,South,180,5.4,5.4,93,0.00,,,0.00,,2013-01-31 08:03:00,
2013-01-31 03:08:00,68.8,68.0,29.96,SSW,202,3.8,6.9,93,0.00,,,0.00,,2013-01-31 08:08:00,
2013-01-31 03:13:00,68.9,68.0,29.96,SSW,202,2.2,2.2,93,0.00,,,0.00,,2013-01-31 08:13:00,
2013-01-31 03:18:00,68.7,68.0,29.96,South,180,2.9,9.2,93,0.00,,,0.00,,2013-01-31 08:18:00,
2013-01-31 03:23:00,68.6,68.0,29.96,SW,225,4.7,9.2,93,0.00,,,0.00,,2013-01-31 08:23:00,
2013-01-31 03:28:00,68.7,68.0,29.96,SW,225,5.8,7.6,93,0.00,,,0.00,,2013-01-31 08:28:00,
2013-01-31 03:33:00,68.7,68.0,29.96,South,180,2.9,2.9,94,0.00,,,0.00,,2013-01-31 08:33:00,
2013-01-31 03:38:00,68.8,68.0,29.96,South,180,3.8,6.7,93,0.00,,,0.00,,2013-01-31 08:38:00,
2013-01-31 03:43:00,68.7,68.0,29.95,South,180,3.4,3.4,93,0.00,,,0.00,,2013-01-31 08:43:00,
2013-01-31 03:48:00,68.7,68.0,29.95,SSW,202,6.3,8.7,94,0.00,,,0.00,,2013-01-31 08:48:00,
2013-01-31 03:53:00,68.7,68.0,29.95,South,180,8.7,8.7,94,0.00,,,0.00,,2013-01-31 08:53:00,
2013-01-31 03:58:00,68.8,68.0,29.95,South,180,9.4,12.1,94,0.00,,,0.00,,2013-01-31 08:58:00,
2013-01-31 04:03:00,68.9,68.0,29.95,South,180,4.7,4.7,94,0.00,,,0.00,,2013-01-31 09:03:00,
2013-01-31 04:08:00,68.9,68.0,29.95,SSW,202,4.9,9.6,94,0.00,,,0.00,,2013-01-31 09:08:00,
2013-01-31 04:13:00,69.0,68.0,29.95,South,180,4.9,11.0,94,0.00,,,0.00,,2013-01-31 09:13:00,
2013-01-31 04:18:00,69.0,68.0,29.95,SSW,202,4.0,9.6,94,0.00,,,0.00,,2013-01-31 09:18:00,
2013-01-31 04:23:00,69.0,68.0,29.95,SSW,202,6.9,9.6,95,0.00,,,0.00,,2013-01-31 09:23:00,
2013-01-31 04:28:00,69.1,69.0,29.95,SSW,202,3.1,7.6,94,0.00,,,0.00,,2013-01-31 09:28:00,
2013-01-31 04:33:00,69.1,69.0,29.95,SSW,202,4.0,7.8,94,0.00,,,0.00,,2013-01-31 09:33:00,
2013-01-31 04:38:00,69.1,69.0,29.95,South,180,6.3,9.8,95,0.00,,,0.00,,2013-01-31 09:38:00,
2013-01-31 04:43:00,69.2,69.0,29.95,SSW,202,6.0,9.8,95,0.00,,,0.00,,2013-01-31 09:43:00,
2013-01-31 04:48:00,69.0,69.0,29.95,SSW,202,5.1,9.6,95,0.00,,,0.00,,2013-01-31 09:48:00,
2013-01-31 04:53:00,69.1,69.0,29.95,South,180,6.3,6.3,95,0.00,,,0.00,,2013-01-31 09:53:00,
2013-01-31 04:58:00,69.2,69.0,29.95,SSW,202,4.7,8.1,95,0.00,,,0.00,,2013-01-31 09:58:00,
2013-01-31 05:03:00,69.1,69.0,29.95,SSW,202,4.9,4.9,95,0.00,,,0.00,,2013-01-31 10:03:00,
2013-01-31 05:08:00,69.2,69.0,29.95,SSW,202,3.1,7.6,95,0.00,,,0.00,,2013-01-31 10:08:00,
2013-01-31 05:13:00,69.2,69.0,29.95,SSW,202,4.3,5.1,95,0.00,,,0.00,,2013-01-31 10:13:00,
2013-01-31 05:18:00,69.3,69.0,29.95,South,180,5.4,8.3,95,0.00,,,0.00,,2013-01-31 10:18:00,
2013-01-31 05:23:00,69.3,69.0,29.95,SSW,202,6.9,6.9,95,0.00,,,0.00,,2013-01-31 10:23:00,
2013-01-31 05:28:00,69.4,69.0,29.95,SSW,202,4.7,8.7,96,0.00,,,0.00,,2013-01-31 10:28:00,
2013-01-31 05:33:00,69.4,69.0,29.96,SSW,202,6.0,6.0,95,0.00,,,0.00,,2013-01-31 10:33:00,
2013-01-31 05:38:00,69.5,69.0,29.95,SSW,202,7.8,10.7,95,0.00,,,0.00,,2013-01-31 10:38:00,
2013-01-31 05:43:00,69.5,69.0,29.95,SSW,202,6.5,6.5,95,0.00,,,0.00,,2013-01-31 10:43:00,
2013-01-31 05:48:00,69.5,69.0,29.95,South,180,4.5,9.8,95,0.00,,,0.00,,2013-01-31 10:48:00,
2013-01-31 05:53:00,69.4,69.0,29.96,SSW,202,8.5,10.7,96,0.00,,,0.00,,2013-01-31 10:53:00,
2013-01-31 05:58:00,69.6,70.0,29.96,SSW,202,5.1,11.6,96,0.00,,,0.00,,2013-01-31 10:58:00,
2013-01-31 06:03:00,69.5,69.0,29.96,South,180,7.6,8.3,95,0.00,,,0.00,,2013-01-31 11:03:00,
2013-01-31 06:08:00,69.6,70.0,29.96,SSW,202,8.7,10.7,96,0.00,,,0.00,,2013-01-31 11:08:00,
2013-01-31 06:13:00,69.7,70.0,29.96,SSW,202,4.0,6.0,96,0.00,,,0.00,,2013-01-31 11:13:00,
2013-01-31 06:18:00,69.7,70.0,29.96,SW,225,2.7,11.2,95,0.00,,,0.00,,2013-01-31 11:18:00,
2013-01-31 06:24:00,69.6,70.0,29.97,South,180,5.6,6.7,96,0.00,,,0.00,,2013-01-31 11:24:00,
2013-01-31 06:29:00,69.6,70.0,29.97,SSW,202,5.6,8.1,96,0.00,,,0.00,,2013-01-31 11:29:00,
2013-01-31 06:34:00,69.7,70.0,29.97,SSW,202,6.0,6.9,96,0.00,,,0.00,,2013-01-31 11:34:00,
2013-01-31 06:39:00,69.7,70.0,29.97,SSW,202,5.8,11.2,96,0.00,,,0.00,,2013-01-31 11:39:00,
2013-01-31 06:44:00,69.7,70.0,29.97,SSW,202,6.9,8.7,96,0.00,,,0.00,,2013-01-31 11:44:00,
2013-01-31 06:49:00,69.8,70.0,29.97,SSW,202,3.8,9.2,96,0.00,,,0.00,,2013-01-31 11:49:00,
2013-01-31 06:54:00,69.8,70.0,29.97,SSW,202,7.8,8.3,95,0.00,,,0.00,,2013-01-31 11:54:00,
2013-01-31 06:59:00,69.9,70.0,29.97,SSW,202,7.6,8.9,96,0.00,,,0.00,,2013-01-31 11:59:00,
2013-01-31 07:04:00,69.9,70.0,29.98,SSW,202,4.5,5.4,96,0.00,,,0.00,,2013-01-31 12:04:00,
2013-01-31 07:09:00,69.9,70.0,29.98,SSW,202,6.3,10.1,95,0.00,,,0.00,,2013-01-31 12:09:00,
2013-01-31 07:14:00,70.0,70.0,29.98,South,180,4.0,4.7,95,0.00,,,0.00,,2013-01-31 12:14:00,
2013-01-31 07:19:00,70.0,70.0,29.99,SW,225,4.0,7.8,95,0.00,,,0.00,,2013-01-31 12:19:00,
2013-01-31 07:24:00,70.2,70.0,30.00,WSW,247,2.2,3.4,95,0.00,,,0.00,,2013-01-31 12:24:00,
2013-01-31 07:29:00,69.9,69.0,30.01,West,270,13.2,16.1,94,0.00,,,0.00,,2013-01-31 12:29:00,
2013-01-31 07:34:00,69.5,68.0,30.01,WNW,292,9.4,12.8,93,0.00,,,0.00,,2013-01-31 12:34:00,
2013-01-31 07:39:00,69.0,68.0,30.02,NW,315,11.9,21.7,93,0.00,,,0.00,,2013-01-31 12:39:00,
2013-01-31 07:44:00,68.5,67.0,30.02,NNW,337,18.6,18.6,92,0.00,,,0.00,,2013-01-31 12:44:00,
2013-01-31 07:49:00,67.8,66.0,30.03,NNW,337,20.6,25.1,91,0.00,,,0.00,,2013-01-31 12:49:00,
2013-01-31 07:54:00,66.2,63.0,30.04,NW,315,12.5,13.2,86,0.00,,,0.00,,2013-01-31 12:54:00,
2013-01-31 07:59:00,65.1,61.0,30.05,North,0,12.1,23.7,85,0.00,,,0.00,,2013-01-31 12:59:00,
2013-01-31 08:04:00,64.4,61.0,30.05,NNW,337,16.6,16.6,86,0.00,,,0.00,,2013-01-31 13:04:00,
2013-01-31 08:09:00,63.7,60.0,30.05,NNW,337,14.8,23.3,87,0.00,,,0.00,,2013-01-31 13:09:00,
2013-01-31 08:14:00,63.4,61.0,30.05,WNW,292,9.4,11.0,88,0.00,,,0.00,,2013-01-31 13:14:00,
2013-01-31 08:19:00,63.0,60.0,30.06,NNW,337,15.2,20.6,88,0.00,,,0.00,,2013-01-31 13:19:00,
2013-01-31 08:24:00,62.8,60.0,30.06,NW,315,15.0,16.6,88,0.00,,,0.00,,2013-01-31 13:24:00,
2013-01-31 08:29:00,62.8,60.0,30.06,NW,315,12.8,19.2,88,0.00,,,0.00,,2013-01-31 13:29:00,
2013-01-31 08:34:00,62.9,60.0,30.07,NNW,337,11.9,11.9,88,0.00,,,0.00,,2013-01-31 13:34:00,
2013-01-31 08:39:00,62.7,60.0,30.07,NNW,337,13.6,22.6,88,0.00,,,0.00,,2013-01-31 13:39:00,
2013-01-31 08:44:00,62.6,60.0,30.08,NNW,337,8.9,8.9,88,0.00,,,0.00,,2013-01-31 13:44:00,
2013-01-31 08:49:00,62.6,60.0,30.08,North,0,16.1,20.4,88,0.00,,,0.00,,2013-01-31 13:49:00,
2013-01-31 08:54:00,62.5,59.0,30.08,NNW,337,10.1,21.3,88,0.00,,,0.00,,2013-01-31 13:54:00,
2013-01-31 08:59:00,62.6,60.0,30.08,North,0,11.6,16.8,88,0.00,,,0.00,,2013-01-31 13:59:00,
2013-01-31 09:04:00,62.5,59.0,30.09,North,0,11.4,19.2,87,0.00,,,0.00,,2013-01-31 14:04:00,
2013-01-31 09:09:00,62.4,60.0,30.09,North,0,8.3,17.2,88,0.00,,,0.00,,2013-01-31 14:09:00,
2013-01-31 09:14:00,62.4,59.0,30.09,North,0,10.7,17.2,88,0.00,,,0.00,,2013-01-31 14:14:00,
2013-01-31 09:19:00,62.3,59.0,30.09,North,0,14.5,19.0,87,0.00,,,0.00,,2013-01-31 14:19:00,
2013-01-31 09:24:00,62.3,59.0,30.09,North,0,12.5,19.5,87,0.00,,,0.00,,2013-01-31 14:24:00,
2013-01-31 09:29:00,62.0,58.0,30.09,NNW,337,10.1,19.2,86,0.00,,,0.00,,2013-01-31 14:29:00,
2013-01-31 09:34:00,61.7,57.0,30.10,NNW,337,21.3,23.7,84,0.00,,,0.00,,2013-01-31 14:34:00,
2013-01-31 09:39:00,61.5,57.0,30.10,NNW,337,13.4,25.7,84,0.00,,,0.00,,2013-01-31 14:39:00,
2013-01-31 09:44:00,61.4,57.0,30.10,NNW,337,15.7,25.7,85,0.00,,,0.00,,2013-01-31 14:44:00,
2013-01-31 09:49:00,61.4,58.0,30.11,NNW,337,13.6,23.7,85,0.00,,,0.00,,2013-01-31 14:49:00,
2013-01-31 09:54:00,61.6,58.0,30.11,NNW,337,12.5,13.2,85,0.00,,,0.00,,2013-01-31 14:54:00,
2013-01-31 09:59:00,61.6,58.0,30.11,NNW,337,12.1,23.9,85,0.00,,,0.00,,2013-01-31 14:59:00,
2013-01-31 10:04:00,61.5,57.0,30.12,NW,315,16.3,17.7,84,0.00,,,0.00,,2013-01-31 15:04:00,
2013-01-31 10:09:00,61.4,57.0,30.12,North,0,15.9,21.9,84,0.00,,,0.00,,2013-01-31 15:09:00,
2013-01-31 10:14:00,61.2,57.0,30.11,North,0,18.1,20.8,84,0.00,,,0.00,,2013-01-31 15:14:00,
2013-01-31 10:19:00,61.2,57.0,30.11,NNW,337,16.8,24.6,84,0.00,,,0.00,,2013-01-31 15:19:00,
2013-01-31 10:24:00,61.5,57.0,30.11,North,0,14.3,24.6,84,0.00,,,0.00,,2013-01-31 15:24:00,
2013-01-31 10:29:00,61.6,56.0,30.11,NW,315,16.6,23.9,81,0.00,,,0.00,,2013-01-31 15:29:00,
2013-01-31 10:34:00,61.8,56.0,30.11,NNW,337,13.6,13.6,81,0.00,,,0.00,,2013-01-31 15:34:00,
2013-01-31 10:39:00,61.9,56.0,30.11,North,0,15.4,22.4,80,0.00,,,0.00,,2013-01-31 15:39:00,
2013-01-31 10:44:00,62.1,56.0,30.11,NW,315,11.4,22.4,80,0.00,,,0.00,,2013-01-31 15:44:00,
2013-01-31 10:49:00,62.1,56.0,30.11,NNW,337,16.6,21.9,80,0.00,,,0.00,,2013-01-31 15:49:00,
2013-01-31 10:54:00,62.0,56.0,30.11,NNE,22,12.5,22.8,80,0.00,,,0.00,,2013-01-31 15:54:00,
2013-01-31 10:59:00,61.7,56.0,30.11,NNW,337,16.3,20.6,80,0.00,,,0.00,,2013-01-31 15:59:00,
2013-01-31 11:04:00,61.5,56.0,30.12,NNW,337,12.5,20.6,81,0.00,,,0.00,,2013-01-31 16:04:00,
2013-01-31 11:09:00,61.5,56.0,30.11,North,0,12.3,18.3,82,0.00,,,0.00,,2013-01-31 16:09:00,
2013-01-31 11:14:00,61.5,57.0,30.11,North,0,11.2,18.3,82,0.00,,,0.00,,2013-01-31 16:14:00,
2013-01-31 11:19:00,61.5,57.0,30.11,North,0,15.7,19.0,82,0.00,,,0.00,,2013-01-31 16:19:00,
2013-01-31 11:24:00,61.6,57.0,30.11,North,0,12.8,19.5,83,0.00,,,0.00,,2013-01-31 16:24:00,
2013-01-31 11:29:00,61.5,56.0,30.11,North,0,15.7,16.8,82,0.00,,,0.00,,2013-01-31 16:29:00,
2013-01-31 11:34:00,61.3,56.0,30.11,North,0,11.9,16.8,81,0.00,,,0.00,,2013-01-31 16:34:00,
2013-01-31 11:39:00,61.1,52.0,30.11,North,0,15.0,19.9,70,0.00,,,0.00,,2013-01-31 16:39:00,
2013-01-31 11:44:00,61.1,50.0,30.11,NNW,337,14.1,19.9,66,0.00,,,0.00,,2013-01-31 16:44:00,
2013-01-31 11:49:00,61.3,51.0,30.10,NNW,337,11.2,14.8,66,0.00,,,0.00,,2013-01-31 16:49:00,
2013-01-31 11:54:00,61.6,51.0,30.10,North,0,12.1,14.8,66,0.00,,,0.00,,2013-01-31 16:54:00,
2013-01-31 11:59:00,61.9,50.0,30.10,North,0,12.8,16.1,63,0.00,,,0.00,,2013-01-31 16:59:00,
2013-01-31 12:04:00,61.9,50.0,30.10,NNW,337,11.2,17.7,64,0.00,,,0.00,,2013-01-31 17:04:00,
2013-01-31 12:09:00,62.2,50.0,30.11,NNW,337,7.4,15.4,63,0.00,,,0.00,,2013-01-31 17:09:00,
2013-01-31 12:14:00,62.5,51.0,30.10,North,0,6.7,15.4,64,0.00,,,0.00,,2013-01-31 17:14:00,
2013-01-31 12:19:00,62.9,51.0,30.10,NNE,22,10.3,12.3,63,0.00,,,0.00,,2013-01-31 17:19:00,
2013-01-31 12:24:00,63.1,50.0,30.10,North,0,11.0,14.3,61,0.00,,,0.00,,2013-01-31 17:24:00,
2013-01-31 12:29:00,63.2,51.0,30.10,NNW,337,4.0,13.2,62,0.00,,,0.00,,2013-01-31 17:29:00,
2013-01-31 12:34:00,63.4,51.0,30.10,NNW,337,8.7,15.7,61,0.00,,,0.00,,2013-01-31 17:34:00,
2013-01-31 12:39:00,63.5,51.0,30.09,North,0,11.9,15.9,61,0.00,,,0.00,,2013-01-31 17:39:00,
2013-01-31 12:44:00,63.5,51.0,30.09,NNW,337,8.7,15.9,61,0.00,,,0.00,,2013-01-31 17:44:00,
2013-01-31 12:49:00,63.5,52.0,30.08,NNE,22,11.4,13.6,62,0.00,,,0.00,,2013-01-31 17:49:00,
2013-01-31 12:54:00,63.4,52.0,30.09,North,0,7.4,15.4,63,0.00,,,0.00,,2013-01-31 17:54:00,
2013-01-31 12:59:00,63.4,52.0,30.09,NNW,337,6.9,13.2,64,0.00,,,0.00,,2013-01-31 17:59:00,
2013-01-31 13:04:00,63.5,52.0,30.08,NNW,337,7.2,13.2,64,0.00,,,0.00,,2013-01-31 18:04:00,
2013-01-31 13:09:00,63.5,53.0,30.08,North,0,10.5,13.9,65,0.00,,,0.00,,2013-01-31 18:09:00,
2013-01-31 13:14:00,63.2,53.0,30.07,NNW,337,10.5,13.9,67,0.00,,,0.00,,2013-01-31 18:14:00,
2013-01-31 13:19:00,63.1,53.0,30.08,North,0,12.3,15.0,68,0.00,,,0.00,,2013-01-31 18:19:00,
2013-01-31 13:24:00,62.6,53.0,30.08,NNW,337,12.5,17.2,69,0.00,,,0.00,,2013-01-31 18:24:00,
2013-01-31 13:29:00,62.3,54.0,30.07,North,0,7.8,13.2,73,0.00,,,0.00,,2013-01-31 18:29:00,
2013-01-31 13:34:00,61.8,54.0,30.07,NNW,337,5.4,13.2,73,0.00,,,0.00,,2013-01-31 18:34:00,
2013-01-31 13:39:00,61.7,54.0,30.07,North,0,6.5,8.5,74,0.00,,,0.00,,2013-01-31 18:39:00,
2013-01-31 13:44:00,61.4,54.0,30.07,North,0,8.3,10.7,74,0.00,,,0.00,,2013-01-31 18:44:00,
2013-01-31 13:49:00,61.3,54.0,30.06,North,0,5.1,10.5,76,0.00,,,0.00,,2013-01-31 18:49:00,
2013-01-31 13:54:00,61.3,55.0,30.07,NW,315,7.4,10.7,77,0.00,,,0.00,,2013-01-31 18:54:00,
2013-01-31 13:59:00,61.4,55.0,30.06,North,0,6.5,10.3,78,0.00,,,0.00,,2013-01-31 18:59:00,
2013-01-31 14:04:00,61.4,55.0,30.07,NNW,337,13.0,16.3,78,0.00,,,0.00,,2013-01-31 19:04:00,
2013-01-31 14:09:00,61.5,55.0,30.07,NNW,337,10.3,13.9,79,0.00,,,0.00,,2013-01-31 19:09:00,
2013-01-31 14:14:00,61.7,56.0,30.07,NW,315,6.7,13.9,79,0.00,,,0.00,,2013-01-31 19:14:00,
2013-01-31 14:19:00,61.9,55.0,30.07,NW,315,9.2,14.3,76,0.00,,,0.00,,2013-01-31 19:19:00,
2013-01-31 14:24:00,62.3,54.0,30.06,NW,315,7.2,14.3,74,0.00,,,0.00,,2013-01-31 19:24:00,
2013-01-31 14:29:00,62.7,55.0,30.07,North,0,5.1,12.8,75,0.00,,,0.00,,2013-01-31 19:29:00,
2013-01-31 14:34:00,62.8,54.0,30.07,WNW,292,8.1,14.1,71,0.00,,,0.00,,2013-01-31 19:34:00,
2013-01-31 14:39:00,63.1,53.0,30.07,NW,315,6.5,10.7,69,0.00,,,0.00,,2013-01-31 19:39:00,
2013-01-31 14:44:00,63.3,53.0,30.06,NNW,337,11.2,17.4,67,0.00,,,0.00,,2013-01-31 19:44:00,
2013-01-31 14:49:00,63.4,52.0,30.07,NW,315,11.2,14.3,64,0.00,,,0.00,,2013-01-31 19:49:00,
2013-01-31 14:54:00,63.6,52.0,30.06,NW,315,5.1,14.3,63,0.00,,,0.00,,2013-01-31 19:54:00,
2013-01-31 14:59:00,63.7,51.0,30.07,NW,315,7.6,13.9,61,0.00,,,0.00,,2013-01-31 19:59:00,
2013-01-31 15:04:00,63.6,51.0,30.07,NW,315,9.2,13.9,60,0.00,,,0.00,,2013-01-31 20:04:00,
2013-01-31 15:09:00,63.8,51.0,30.07,NNW,337,7.4,11.2,60,0.00,,,0.00,,2013-01-31 20:09:00,
2013-01-31 15:14:00,63.8,51.0,30.07,NNW,337,8.9,11.2,59,0.00,,,0.00,,2013-01-31 20:14:00,
2013-01-31 15:19:00,63.9,51.0,30.07,WNW,292,8.1,10.5,59,0.00,,,0.00,,2013-01-31 20:19:00,
2013-01-31 15:24:00,64.0,51.0,30.07,NNW,337,6.9,10.5,60,0.00,,,0.00,,2013-01-31 20:24:00,
2013-01-31 15:29:00,64.0,50.0,30.07,North,0,9.8,13.6,58,0.00,,,0.00,,2013-01-31 20:29:00,
2013-01-31 15:34:00,63.8,50.0,30.07,NNW,337,10.1,13.6,58,0.00,,,0.00,,2013-01-31 20:34:00,
2013-01-31 15:39:00,63.9,50.0,30.07,NNW,337,9.2,12.5,58,0.00,,,0.00,,2013-01-31 20:39:00,
2013-01-31 15:44:00,63.8,50.0,30.07,NNW,337,11.9,13.2,58,0.00,,,0.00,,2013-01-31 20:44:00,
2013-01-31 15:49:00,63.9,51.0,30.07,NW,315,6.0,13.4,60,0.00,,,0.00,,2013-01-31 20:49:00,
2013-01-31 15:54:00,64.0,51.0,30.07,North,0,7.8,13.4,60,0.00,,,0.00,,2013-01-31 20:54:00,
2013-01-31 15:59:00,64.1,51.0,30.07,NW,315,2.9,9.2,61,0.00,,,0.00,,2013-01-31 20:59:00,
2013-01-31 16:04:00,64.3,51.0,30.08,NNW,337,4.9,9.8,60,0.00,,,0.00,,2013-01-31 21:04:00,
2013-01-31 16:09:00,64.4,52.0,30.08,NNW,337,3.4,7.2,61,0.00,,,0.00,,2013-01-31 21:09:00,
2013-01-31 16:14:00,64.6,52.0,30.08,NW,315,4.5,7.6,61,0.00,,,0.00,,2013-01-31 21:14:00,
2013-01-31 16:19:00,64.7,52.0,30.08,NNW,337,0.2,6.9,61,0.00,,,0.00,,2013-01-31 21:19:00,
2013-01-31 16:24:00,64.9,52.0,30.08,NNW,337,3.8,6.9,61,0.00,,,0.00,,2013-01-31 21:24:00,
2013-01-31 16:29:00,65.1,53.0,30.07,NNW,337,1.8,4.3,61,0.00,,,0.00,,2013-01-31 21:29:00,
2013-01-31 16:34:00,65.2,53.0,30.08,NE,45,0.0,4.3,62,0.00,,,0.00,,2013-01-31 21:34:00,
2013-01-31 16:39:00,65.2,52.0,30.08,West,270,3.1,4.0,60,0.00,,,0.00,,2013-01-31 21:39:00,
2013-01-31 16:44:00,65.1,53.0,30.08,WSW,247,1.1,4.3,62,0.00,,,0.00,,2013-01-31 21:44:00,
2013-01-31 16:49:00,65.4,53.0,30.08,WNW,292,0.0,4.7,62,0.00,,,0.00,,2013-01-31 21:49:00,
2013-01-31 16:54:00,65.9,54.0,30.08,WNW,292,1.3,4.7,62,0.00,,,0.00,,2013-01-31 21:54:00,
2013-01-31 16:59:00,66.4,54.0,30.09,NW,315,3.8,4.0,62,0.00,,,0.00,,2013-01-31 21:59:00,
2013-01-31 17:04:00,66.5,54.0,30.09,NW,315,5.4,6.0,61,0.00,,,0.00,,2013-01-31 22:04:00,
2013-01-31 17:09:00,66.4,54.0,30.08,WNW,292,3.1,5.1,61,0.00,,,0.00,,2013-01-31 22:09:00,
2013-01-31 17:14:00,66.0,53.0,30.09,West,270,0.7,5.1,60,0.00,,,0.00,,2013-01-31 22:14:00,
2013-01-31 17:19:00,66.0,53.0,30.09,WSW,247,0.9,2.7,61,0.00,,,0.00,,2013-01-31 22:19:00,
2013-01-31 17:24:00,65.7,53.0,30.09,WSW,247,1.8,3.6,61,0.00,,,0.00,,2013-01-31 22:24:00,
2013-01-31 17:29:00,65.6,53.0,30.09,WSW,247,0.0,2.9,61,0.00,,,0.00,,2013-01-31 22:29:00,
2013-01-31 17:34:00,65.7,54.0,30.09,WSW,247,0.0,2.9,62,0.00,,,0.00,,2013-01-31 22:34:00,
2013-01-31 17:39:00,65.8,54.0,30.09,North,0,0.0,0.0,63,0.00,,,0.00,,2013-01-31 22:39:00,
2013-01-31 17:44:00,65.8,54.0,30.09,NW,315,0.0,0.0,64,0.00,,,0.00,,2013-01-31 22:44:00,
2013-01-31 17:49:00,65.8,54.0,30.09,NW,315,0.0,0.0,64,0.00,,,0.00,,2013-01-31 22:49:00,
2013-01-31 17:54:00,65.8,55.0,30.09,NE,45,2.5,3.8,65,0.00,,,0.00,,2013-01-31 22:54:00,
2013-01-31 17:59:00,65.8,55.0,30.09,NE,45,2.0,4.5,65,0.00,,,0.00,,2013-01-31 22:59:00,
2013-01-31 18:04:00,65.7,55.0,30.10,NNE,22,5.1,5.6,65,0.00,,,0.00,,2013-01-31 23:04:00,
2013-01-31 18:09:00,65.7,54.0,30.10,NNE,22,4.0,7.2,63,0.00,,,0.00,,2013-01-31 23:09:00,
2013-01-31 18:14:00,65.7,53.0,30.10,NNE,22,2.2,7.4,61,0.00,,,0.00,,2013-01-31 23:14:00,
2013-01-31 18:19:00,65.7,52.0,30.10,NNW,337,7.2,8.9,57,0.00,,,0.00,,2013-01-31 23:19:00,
2013-01-31 18:24:00,65.8,51.0,30.11,NNW,337,7.4,10.5,55,0.00,,,0.00,,2013-01-31 23:24:00,
2013-01-31 18:29:00,65.8,51.0,30.11,North,0,5.6,10.1,55,0.00,,,0.00,,2013-01-31 23:29:00,
2013-01-31 18:34:00,65.9,51.0,30.11,North,0,4.7,10.1,54,0.00,,,0.00,,2013-01-31 23:34:00,
2013-01-31 18:39:00,65.8,51.0,30.11,North,0,5.6,9.4,53,0.00,,,0.00,,2013-01-31 23:39:00,
2013-01-31 18:44:00,65.8,50.0,30.11,North,0,8.3,9.4,53,0.00,,,0.00,,2013-01-31 23:44:00,
2013-01-31 18:49:00,65.8,51.0,30.11,North,0,4.5,7.8,54,0.00,,,0.00,,2013-01-31 23:49:00,
2013-01-31 18:54:00,65.6,50.0,30.11,North,0,6.7,10.7,53,0.00,,,0.00,,2013-01-31 23:54:00,
2013-01-31 18:59:00,65.5,50.0,30.12,North,0,7.4,11.4,53,0.00,,,0.00,,2013-01-31 23:59:00,
2013-01-31 19:04:00,65.4,50.0,30.12,North,0,7.8,11.4,54,0.00,,,0.00,,2013-02-01 00:04:00,
2013-01-31 19:09:00,65.4,51.0,30.12,North,0,5.6,9.8,56,0.00,,,0.00,,2013-02-01 00:09:00,
2013-01-31 19:14:00,65.2,51.0,30.12,North,0,8.3,9.8,57,0.00,,,0.00,,2013-02-01 00:14:00,
2013-01-31 19:19:00,65.1,52.0,30.12,North,0,4.5,11.0,59,0.00,,,0.00,,2013-02-01 00:19:00,
2013-01-31 19:24:00,65.0,52.0,30.12,North,0,7.8,11.0,60,0.00,,,0.00,,2013-02-01 00:24:00,
2013-01-31 19:29:00,64.9,53.0,30.12,NNE,22,5.6,9.6,62,0.00,,,0.00,,2013-02-01 00:29:00,
2013-01-31 19:34:00,64.8,53.0,30.12,NNE,22,7.6,9.6,63,0.00,,,0.00,,2013-02-01 00:34:00,
2013-01-31 19:39:00,64.7,53.0,30.12,North,0,4.3,11.4,63,0.00,,,0.00,,2013-02-01 00:39:00,
2013-01-31 19:44:00,64.6,53.0,30.13,North,0,3.4,11.4,64,0.00,,,0.00,,2013-02-01 00:44:00,
2013-01-31 19:49:00,64.5,53.0,30.13,North,0,5.4,7.6,64,0.00,,,0.00,,2013-02-01 00:49:00,
2013-01-31 19:54:00,64.3,53.0,30.13,North,0,5.4,7.6,64,0.00,,,0.00,,2013-02-01 00:54:00,
2013-01-31 19:59:00,64.2,52.0,30.13,NNW,337,5.4,8.7,62,0.00,,,0.00,,2013-02-01 00:59:00,
2013-01-31 20:04:00,64.0,49.0,30.14,NNW,337,6.5,11.6,55,0.00,,,0.00,,2013-02-01 01:04:00,
2013-01-31 20:09:00,63.8,47.0,30.14,North,0,12.1,13.9,51,0.00,,,0.00,,2013-02-01 01:09:00,
2013-01-31 20:14:00,63.6,46.0,30.14,North,0,9.2,17.2,48,0.00,,,0.00,,2013-02-01 01:14:00,
2013-01-31 20:19:00,63.5,46.0,30.14,North,0,8.9,12.5,48,0.00,,,0.00,,2013-02-01 01:19:00,
2013-01-31 20:24:00,63.2,46.0,30.14,North,0,7.6,13.2,47,0.00,,,0.00,,2013-02-01 01:24:00,
2013-01-31 20:29:00,63.1,46.0,30.14,North,0,7.6,15.9,48,0.00,,,0.00,,2013-02-01 01:29:00,
2013-01-31 20:34:00,62.8,45.0,30.14,NNW,337,7.2,15.9,47,0.00,,,0.00,,2013-02-01 01:34:00,
2013-01-31 20:39:00,62.6,45.0,30.15,North,0,8.9,13.9,47,0.00,,,0.00,,2013-02-01 01:39:00,
2013-01-31 20:44:00,62.4,45.0,30.15,NNW,337,8.3,13.9,48,0.00,,,0.00,,2013-02-01 01:44:00,
2013-01-31 20:49:00,62.2,45.0,30.15,North,0,7.4,13.6,48,0.00,,,0.00,,2013-02-01 01:49:00,
2013-01-31 20:54:00,62.0,45.0,30.16,North,0,7.6,13.6,48,0.00,,,0.00,,2013-02-01 01:54:00,
2013-01-31 20:59:00,61.8,44.0,30.16,North,0,10.7,12.5,48,0.00,,,0.00,,2013-02-01 01:59:00,
2013-01-31 21:04:00,61.6,44.0,30.16,North,0,11.0,13.6,47,0.00,,,0.00,,2013-02-01 02:04:00,
2013-01-31 21:09:00,61.4,45.0,30.16,NNW,337,10.1,14.1,49,0.00,,,0.00,,2013-02-01 02:09:00,
2013-01-31 21:14:00,61.2,44.0,30.16,NNW,337,10.3,14.5,49,0.00,,,0.00,,2013-02-01 02:14:00,
2013-01-31 21:19:00,61.1,44.0,30.17,NNW,337,9.4,12.5,49,0.00,,,0.00,,2013-02-01 02:19:00,
2013-01-31 21:24:00,60.9,44.0,30.17,North,0,8.9,15.0,48,0.00,,,0.00,,2013-02-01 02:24:00,
2013-01-31 21:29:00,60.7,43.0,30.17,North,0,9.2,13.4,47,0.00,,,0.00,,2013-02-01 02:29:00,
2013-01-31 21:34:00,60.5,43.0,30.17,North,0,12.3,15.4,47,0.00,,,0.00,,2013-02-01 02:34:00,
2013-01-31 21:39:00,60.4,43.0,30.17,NNW,337,9.8,14.1,47,0.00,,,0.00,,2013-02-01 02:39:00,
2013-01-31 21:44:00,60.2,42.0,30.17,North,0,8.7,14.1,46,0.00,,,0.00,,2013-02-01 02:44:00,
2013-01-31 21:49:00,60.1,42.0,30.17,NNW,337,7.2,13.9,46,0.00,,,0.00,,2013-02-01 02:49:00,
2013-01-31 21:54:00,60.0,42.0,30.17,NNW,337,9.8,13.9,45,0.00,,,0.00,,2013-02-01 02:54:00,
2013-01-31 21:59:00,59.9,42.0,30.17,NNW,337,8.9,11.6,47,0.00,,,0.00,,2013-02-01 02:59:00,
2013-01-31 22:04:00,59.8,42.0,30.18,NNW,337,10.5,13.9,47,0.00,,,0.00,,2013-02-01 03:04:00,
2013-01-31 22:09:00,59.7,42.0,30.18,North,0,8.7,10.7,47,0.00,,,0.00,,2013-02-01 03:09:00,
2013-01-31 22:14:00,59.5,42.0,30.18,NNW,337,9.4,13.0,47,0.00,,,0.00,,2013-02-01 03:14:00,
2013-01-31 22:19:00,59.3,42.0,30.18,NNW,337,9.4,12.8,46,0.00,,,0.00,,2013-02-01 03:19:00,
2013-01-31 22:24:00,59.2,42.0,30.18,NNW,337,13.6,13.6,47,0.00,,,0.00,,2013-02-01 03:24:00,
2013-01-31 22:29:00,59.1,42.0,30.18,North,0,6.9,13.9,48,0.00,,,0.00,,2013-02-01 03:29:00,
2013-01-31 22:34:00,58.9,42.0,30.18,NNW,337,12.8,14.5,48,0.00,,,0.00,,2013-02-01 03:34:00,
2013-01-31 22:39:00,58.8,41.0,30.18,NNW,337,12.5,17.4,48,0.00,,,0.00,,2013-02-01 03:39:00,
2013-01-31 22:44:00,58.6,41.0,30.18,North,0,8.5,17.4,48,0.00,,,0.00,,2013-02-01 03:44:00,
2013-01-31 22:49:00,58.4,41.0,30.18,North,0,11.2,13.0,48,0.00,,,0.00,,2013-02-01 03:49:00,
2013-01-31 22:54:00,58.4,42.0,30.18,North,0,8.9,14.5,49,0.00,,,0.00,,2013-02-01 03:54:00,
2013-01-31 22:59:00,58.3,42.0,30.18,NNW,337,6.7,12.8,49,0.00,,,0.00,,2013-02-01 03:59:00,
2013-01-31 23:04:00,58.2,42.0,30.17,North,0,6.7,13.6,49,0.00,,,0.00,,2013-02-01 04:04:00,
2013-01-31 23:09:00,58.1,42.0,30.18,NNW,337,6.9,11.2,50,0.00,,,0.00,,2013-02-01 04:09:00,
2013-01-31 23:14:00,58.1,42.0,30.18,NNW,337,3.4,11.2,51,0.00,,,0.00,,2013-02-01 04:14:00,
2013-01-31 23:19:00,58.0,41.0,30.18,NNW,337,4.7,6.7,50,0.00,,,0.00,,2013-02-01 04:19:00,
2013-01-31 23:24:00,57.9,41.0,30.18,North,0,5.8,7.6,50,0.00,,,0.00,,2013-02-01 04:24:00,
2013-01-31 23:29:00,57.7,41.0,30.18,NNW,337,5.1,9.4,50,0.00,,,0.00,,2013-02-01 04:29:00,
2013-01-31 23:34:00,57.6,41.0,30.18,North,0,6.7,9.8,49,0.00,,,0.00,,2013-02-01 04:34:00,
2013-01-31 23:39:00,57.5,41.0,30.18,NNW,337,6.0,10.5,50,0.00,,,0.00,,2013-02-01 04:39:00,
2013-01-31 23:44:00,57.4,41.0,30.18,NNW,337,9.2,10.5,50,0.00,,,0.00,,2013-02-01 04:44:00,
2013-01-31 23:49:00,57.3,41.0,30.18,NNW,337,7.6,9.6,51,0.00,,,0.00,,2013-02-01 04:49:00,
2013-01-31 23:54:00,57.2,41.0,30.18,NNW,337,9.2,12.5,52,0.00,,,0.00,,2013-02-01 04:54:00,
2013-01-31 23:59:00,57.1,41.0,30.18,NNW,337,7.4,12.8,50,0.00,,,0.00,,2013-02-01 04:59:00,